Weather History for Prerov, Czech Republic

Change the Weather History Date:

Thursday, February 7, 2013

  Actual Average Record
Temperature  
Mean Temperature 30 °F -  
Max Temperature 35 °F - - ()
Min Temperature 24 °F - - ()
Degree Days  
Heating Degree Days 36    
Moisture  
Dew Point 24 °F    
Average Humidity 81    
Maximum Humidity 93    
Minimum Humidity 60    
Precipitation  
Precipitation 0.00 in - - ()
Sea Level Pressure  
Sea Level Pressure 29.65 in    
Wind  
Wind Speed 4 mph ()    
Max Wind Speed 9 mph    
Max Gust Speed -    
Visibility 6.0 miles    
Events      
T = Trace of Precipitation, MM = Missing Value Source: Averaged Metar Reports

Daily Weather History Graph

Daily Weather History Graph

Search for Another Location

Airport:

Trip Planner

Search our weather history database for the weather conditions in past years. The results will help you decide how hot, cold, wet, or windy it might be!

Date:

Astronomy

Feb. 07, 2013 Rise Set
Actual Time 7:13 AM CET 4:56 PM CET
Civil Twilight 6:39 AM CET 5:30 PM CET
Nautical Twilight 6:01 AM CET 6:08 PM CET
Astronomical Twilight 5:24 AM CET 6:45 PM CET
Moon 4:46 AM CET (2/7) 1:52 PM CET (2/7)
Length of Visible Light 10h 50m
Length of Day
9h 43m
Waning Crescent, 11% of the Moon is Illuminated
Feb 7
Waning Crescent
Feb 10
New
Feb 17
First Quarter
Feb 25
Full
Mar 4
Last Quarter

Hourly Weather History & Observations

Time (CET) Temp. Windchill Dew Point Humidity Pressure Visibility Wind Dir Wind Speed Gust Speed Precip Events Conditions
12:00 AM 28.4 °F - 26.6 °F 93% 29.56 in 5.0 mi Calm Calm - N/A   Unknown
1:00 AM 28.4 °F 23.3 °F 26.6 °F 93% 29.56 in - East 4.6 mph - N/A   Clear
2:00 AM 28.4 °F 24.6 °F 26.6 °F 93% 29.56 in - East 3.5 mph - N/A   Clear
3:00 AM 28.4 °F 23.3 °F 24.8 °F 86% 29.56 in - WNW 4.6 mph - N/A   Clear
4:00 AM 28.4 °F 24.6 °F 24.8 °F 86% 29.56 in - NW 3.5 mph - N/A   Clear
5:00 AM 28.4 °F 21.2 °F 24.8 °F 86% 29.56 in - WNW 6.9 mph - N/A   Clear
6:00 AM 28.4 °F 21.2 °F 24.8 °F 86% 29.56 in - West 6.9 mph - N/A   Clear
7:00 AM 28.4 °F 19.7 °F 24.8 °F 86% 29.59 in - NW 9.2 mph - N/A   Clear
8:00 AM 28.4 °F 22.2 °F 24.8 °F 86% 29.59 in - WNW 5.8 mph - N/A   Clear
9:00 AM 30.2 °F 21.9 °F 24.8 °F 80% 29.62 in - NW 9.2 mph - N/A   Clear
10:00 AM 30.2 °F 21.9 °F 24.8 °F 80% 29.62 in - NW 9.2 mph - N/A   Clear
11:00 AM 32.0 °F 24.2 °F 24.8 °F 75% 29.65 in - WNW 9.2 mph - N/A   Clear
12:00 PM 32.0 °F 25.6 °F 24.8 °F 75% 29.65 in 6.2 mi WNW 6.9 mph - N/A   Mostly Cloudy
1:00 PM 33.8 °F 27.0 °F 24.8 °F 70% 29.65 in 6.2 mi WNW 8.1 mph - N/A   Mostly Cloudy
2:00 PM 35.6 °F 28.6 °F 24.8 °F 65% 29.65 in 6.2 mi West 9.2 mph - N/A   Mostly Cloudy
3:00 PM 33.8 °F 28.6 °F 23.0 °F 65% 29.68 in 6.2 mi WNW 5.8 mph - N/A   Scattered Clouds
4:00 PM 35.6 °F 32.8 °F 23.0 °F 60% 29.68 in 6.2 mi NW 3.5 mph - N/A   Scattered Clouds
5:00 PM 32.0 °F - 24.8 °F 75% 29.71 in 6.2 mi Variable 1.2 mph - N/A   Scattered Clouds
6:00 PM 28.4 °F - 23.0 °F 80% 29.71 in 6.2 mi Calm Calm - N/A   Partly Cloudy
7:00 PM 28.4 °F - 23.0 °F 80% 29.74 in - Variable 1.2 mph - N/A   Clear
8:00 PM 26.6 °F - 23.0 °F 86% 29.74 in - Variable 2.3 mph - N/A   Clear
9:00 PM 26.6 °F - 23.0 °F 86% 29.77 in - SW 2.3 mph - N/A   Clear
10:00 PM 24.8 °F - 21.2 °F 86% 29.77 in - South 1.2 mph - N/A   Clear
11:00 PM 28.4 °F - 24.8 °F 86% 29.77 in - Calm Calm - N/A   Clear